Погода в Мензелинске

Погода в Мензелинске : погода сейчас, прогноз погоды и архив. Всё, что Вы хотите узнать о погоде в Мензелинске!

Поиск расширенной информации на нашем сайте:

Другие новости

Новости СМИ2

Главная страница сайта

Новости сайта

03.07.2017

Напоминаем, что на нашем специализированном сайте Метеоцентр.Азия вы можете получить высокодетализированные автоматические прогнозы погоды по пунктам России, СНГ и мира в авиационном формате (включающие направление и скорость ветра, видимость, явления погоды, количество и форму облачности, нижнюю и верхнюю границу облачности).

Рекомендуем: Tdci i масло mobil 5w30 mobil-1.com.ua.

Погода в Мензелинске - сегодня

Время (UTC), дата Ветер
(°,м/с) 
Видим.   Явления Облачность Т
(°С)
Тd
(°С)
f(%) Тe
(°С)
Pmin
(гПа)
dP
(гПа)
Po
(мм)
O2
(г/м3)
Тmin Tmax R s Состояние
почвы
06 14.08.18 330 (СЗ) 10 км    10/5 600 м средняя, верхняя 
[Sc|Ac trans|Ci fib]
+20.8 +12.4 59 +25  1008.4  0.5  747  277           
09 14.08.18 330 (СЗ) 10 км    10/5 600 м средняя 
[Sc diur, vesp|Ac As]
+21.6 +11.2 52 +24  1009.1  0.8  747  277           
12 14.08.18 320 (СЗ) 6{11}  10 км    10/10 600 м 
[Sc diur, vesp]
+18.9 +7.7 48 +19  1010.3  748  281           
18 14.08.18 320 (СЗ) 10 км  {ливн. осадки}  8/4 600 м средняя 
[Sc|Ac lent]
+15.2 +11 76 +19  1012  1.2  749  284           
21 14.08.18 310 (СЗ) 10 км    1/1 600 м 
[Sc]
+13.2 +10 81 +15  1012.5  0.4  749  286           
00 15.08.18 310 (СЗ) 10 км    1/0 средняя 
[Ac lent]
+11.9 +9.3 84 +11  1013.5  750  288           
06 15.08.18 320 (СЗ) 10 км    ясно 
+19.2 +10.6 57 +22  1015.4  0.7  752  281           
09 15.08.18 330 (СЗ) 5{10}  10 км    6/6 1000 м 
[Cu med, cong]
+20.9 +8.3 44 +21  1015.7  0.3  752  280           
12 15.08.18 330 (СЗ) 4{11}  10 км    5/4 1000 м верхняя 
[Cu hum|Ci fib]
+22.8 +7.8 38 +23  1015.7  0.1  752  278           
18 15.08.18 220 (ЮЗ) 10 км    ясно 
+13.9 +8.7 71 +15  1016.7  0.3  753  287           
21 15.08.18 250 (З) 10 км    3/0 верхняя 
[Ci fib]
+11.9 +8.5 80 +13  1016.6  -0.2  752  289           
00 16.08.18 240 (ЮЗ) 10 км    8/0 средняя, верхняя 
[Ac lent|Cc]
+11.3 +8.3 82 +12  1016  -0.6  752  290           
06 16.08.18 220 (ЮЗ) 5{10}  10 км  {ливн. осадки}  9/6 600 м средняя, верхняя 
[Sc|Ac trans|Ci fib]
+19.4 +11.1 59 +23  1012.4  -1.9  750  280           
12 16.08.18 260 (З) 4{11}  10 км  {ливн. осадки}  10/3 600 м средняя 
[Sc|Ac As]
+20.9 +15.2 70 +30  1011.2  -0.7  749  277           
18 16.08.18 330 (СЗ) 10 км    8/0 средняя 
[Ac As]
+18.6 +14.5 77 +27  1011.6  1.1  749  280           
21 16.08.18 340 (С) 10 км    10/8 600 м средняя 
[Sc|Ac As]
+16.5 +11 70 +18  1013.2  1.5  750  283           
00 17.08.18 350 (С) 10 км    10/10 600 м 
[Sc]
+15.2 +10.8 75 +17  1014.9  1.6  751  285           
06 17.08.18 010 (С) 4{10}  10 км    8/4 600 м верхняя 
[Cu med, cong|Ci fib]
+16.8 +9.1 60 +17  1018  1.2  754  284           
09 17.08.18 360 (С) 5{10}  10 км    6/6 600 м 
[Cu Sc]
+19.5 +6.5 43 +20  1018.2  0.3  754  282           
12 17.08.18 360 (С) 10 км    6/4 600 м средняя 
[Cu Sc|Ac trans]
+19 +5.7 42 +19  1018.3  0.1  754  283           
18 17.08.18 350 (С) 10 км    3/3 600 м 
[Sc]
+13.9 +7.8 67 +14  1019.2  0.5  754  288           
21 17.08.18 360 (С) 10 км    ясно 
+11.5 +7.6 77 +11  1019.4  754  290           
00 18.08.18 010 (С) 10 км    ясно 
+10.3 +7.7 84 +10  1020.4  755  292           
06 18.08.18 360 (С) 10 км    3/3 600 м 
[Cu med, cong]
+14.7 +7.8 63 +14  1021.6  0.3  756  288           
09 18.08.18 360 (С) 10 км    8/8 1000 м 
[Cu hum]
+17.3 +5.5 46 +17  1020.8  -0.7  756  286           
Время (UTC), дата Ветер
(°,м/с) 
Видим.   Явления Облачность Т
(°С)
Тd
(°С)
f(%) Тe
(°С)
Pmin
(гПа)
dP
(гПа)
Po
(мм)
O2
(г/м3)
Тmin Tmax R s Состояние
почвы

Для получения пояснительной информации подведите курсор к названию столбца.

ПОГОДА в Мензелинске - архив

Всё, что Вы хотите узнать о погоде в Мензелинске - удобно и подробно!

Выберите нужную дату (начиная с 1 января 2015* года) и нажмите кнопку "Найти".
Будут отображены архивные сводки погоды по пункту Мензелинск, начиная с указанной даты.


Отображать данные в формате CSV (для использования в таблицах Excel)


Внимание! Наш архив погоды предназначен исключительно для личного некоммерческого использования в познавательных целях. Если Вам необходимы официальные справки о состоянии погоды (для производственных, юридических, коммерческих и т.п. целей), обращайтесь в органы Росгидромета.

*Примечание: данная дата относится к архиву по метеостанциям СССР (Россия, СНГ, Балтия).
Архив по метеостанциям Зарубежной Европы и Азии (кроме Китая) хранится 10 дней, по другим регионам земного шара (Китай, Африка, Америка, Австралия, Океания) - 1 день.

Мензелинск - район местоположения метеостанции


Название, широта, долгота, высота метеостанции:
Мензелинск 55.7°ш. 53.1°д. 112 м над ур. моря [Российская Федерация]

Дополнительная информация

В oтличие oт бoльшинства пoгoдных сайтoв мы публикуем пoдрoбную метеoинфoрмацию в детальнoм прoфессиoнальнoм фoрмате.

Характеристики температуры и влажнoсти вoздуха измеряются на высoте 2 м в тени вдали oт зданий и деревьев.
Скoрoсть ветра измеряется на высoте 10 м (на урoвне рoста челoвека скoрoсть ветра ниже в 1.5-2 раза). Если метеoстанция нахoдится в гoрoде или в лесу, тo скoрoсть ветра занижена на 2-4 м/с пo сравнению с oткрытым местoм. Скoрoсть ветра над акватoриями крупных рек и oзёр, а также на вершинах хoлмoв на 2-5 м/с выше, чем в oбычных услoвиях.
Атмoсфернoе давление в разных тoчках местнoсти мoжет значительнo oтличаться oт давления на метеoстанции, в зависимoсти oт услoвий рельефа (при пoдъёме на 10 м давление пoнижается примернo на 1 мм рт.ст.).